sat.trackr.live / text

‹ back to catalog

STARLINK-5829

NORAD 56347 · 2023-058AG

PAYLOAD ACTIVE UNKNOWN

§ Identity

Operator
Country
US
Launch date
2023-04-27
Launch site
AFWTR
Launch vehicle
Mass (kg)
RCS (m²)

Purposes: comms

External: N2YO · Heavens-Above · Gunter

§ Orbital elements

Epoch: 2026-05-24T22:55:40.778112Z

Period
95.64 min
Inclination
97.4483°
Eccentricity
0.0001796
Mean motion
15.05653936 rev/d
Perigee alt
548.3 km
Apogee alt
550.7 km
Semi-major
6,927.6 km
B*
1.0509e-5
RAAN
146.0460°
Arg perigee
79.0835°
Mean anomaly
281.0594°
Rev number
16,967

§ Raw data

STARLINK-58291 56347U 23058AG  26144.95533308  .00000093  00000+0  10509-4 0  99962 56347  97.4483 146.0460 0001796  79.0835 281.0594 15.05653936169679

JSON: /api/v1/satellites/56347 · /tle

For live sub-satellite position, see the globe view (requires WebGL).

§ Visibility from observer

Set your observer location to see the next 7 days of passes ≥ 10°. The values pass through the URL so the page stays shareable.

No JS? Fill the form by hand. The geolocation button needs JavaScript.